Location: Tierra del Sol
(32.6128°N, 116.3319°W)
Time: 18:40:59
(UTC-07:00)

Envisat - Pass Details

Date: 13 October 2017
Orbit: 764 x 766 km, 98.2° (Epoch: 18 October)

Event Time Altitude Azimuth Distance (km) Brightness Sun altitude
Exits shadow 21:17:25 15° 327° (NNW) 1,956 5.5 -39.0°
Drops below altitude 10° 21:18:23 10° 332° (NNW) 2,304 5.9 -39.2°
Sets 21:20:49 0° 339° (NNW) 3,234 6.7 -39.7°
